Вернуться в каталог

KUIPER-00064

АктивенСвязьLEO
NORAD 64524·PAYLOAD·🇺🇸 United States

Запущен Jun 23, 2025 с Cape Canaveral Space Force Station

Loading…

Ближайшие Пролёты (ближайшие 24 часа)

TLE

СвежийSource: CelesTrak SupGP

Эпоха: Sep 14, 2026, 14:17 UTC

1 64524C 25134AA  26257.59560185  .00000785  00000+0  10280-3 0  2577
2 64524  51.9009 120.2306 0001154 100.3745   3.8707 14.79922012    15

Отслеживайте KUIPER-00064 в реальном времени с AllMySat

Download on the App Store